DECAYED

STARLINK-1683, 46578 (Decayed)

Orbit data source: Space-Track

STARLINK-1683, 46578 was a payload satellite owned by SpaceX/Seattle (US) in LEO that was launched on Tue, 06 Oct 2020 UTC via an FALCON 9 launch vehicle from the Air Force Eastern Test Range (AFETR). Payload-class satellites include a variety of spacecraft equipped with specific instruments for various scientific and technological missions. These include communications satellites like Starlink; space stations such as the ISS; scientific satellites like the Hubble; Earth observation satellites from companies like Planet Labs, Umbra, and HawkEye 360; GPS; miniature CubeSats for education and research; and military/defense satellites.

Not visible in the next 10 days
Identifier
46578, 2020-070AY
Orbit
Decayed
Country
Flag of USUS
Related business
Manufacturer
SpaceX/Seattle
Mission
Decayed Commercial Communications
Bus & Motor
STARLINK, Unknown motor
Mass
260 kg wet, ~248 kg dry
Launch date (UTC)
2020-10-06 (6 years ago)
Launch vehicle
FALCON 9
Launch site
Air Force Eastern Test Range (AFETR)
Object type
Payload
Rocket body
Debris
Shape & HBR
Box + 1 Pan, 10.1 m
Radar Cross Section
13.562 m², Large (>1 m²)

Expand to show TLE details & history
Last TLE update: 2 months ago

TLE from 2 months ago
0 STARLINK-1683
1 46578U 20070AY  26111.54607502  .05048182  12433-4  33804-3 0  9995
2 46578  52.9930 211.0129 0010211 299.4118  60.5908 16.40478612307822
Epoch: 2026-04-21T13:06Z
TLE epoch observation values (Epoch: 2026-04-21T13:06:20.881Z)
Latitude
-0.00005°
Longitude
164.80555°
Altitude
162.178 km
Speed
7.812 km/s
True Right ascension
14h 04m 03s
True Declination
0° 00' 00"
Sunlit
Object was in full shadow at epoch
Visualization orbit readout
Latitude
Unknown
Longitude
Unknown
Altitude
Unknown
Speed
Unknown
Apparent Right ascension
Unknown
Apparent Declination
Unknown
Sunlit
N/A
Visualization observer readout
Local Sidereal Time
07:25:29
Azimuth
Unknown
Elevation
Unknown
Doppler factor
Unknown
Orbital elements
Apogee altitude
171.507 km
Perigee altitude
158.145 km
Semi-major axis
6,542.963 km
Eccentricity
0.00102
Inclination
52.993°
RAAN
211.0129°
Arg. of periapsis
299.4118°
True anomaly
60.69279°
Mean anomaly
60.5908°
Eccentric anomaly
60.64179°
Mean motion
4.10092 °/min
Orbital period
87.79 mins
BSTAR
0.00033804
Loading maneuver chart data...
Computing Atmospheric mass density...

Documentation

Showing up to 5 results
|